Orbital Elements
Epoch 2001 Feb. 20.0 TT = JDT 2451960.5
T 2001 Feb. 25.86428 TT Muraoka
q 2.1271932 (2000.0) P Q
n 0.13903346 Peri. 50.06387 +0.43009967 -0.90242856
a 3.6902560 Node 14.52419 +0.79456112 +0.36512204
e 0.4235649 Incl. 5.77572 +0.42858709 +0.22871070
P 7.09
From 153 observations 1890-2000, mean residual 1".58.
|